Disclaimer

Please do not use the information listed here in-flight or in-navigation, as they are not provided to us by the airports but are provided by volunteers, so they might be outdated.

Search


Regions


Airport information page

No radio frequency information is available.

Airport informations:
Latitude: 43° 54' 25.58" N
Longitude: 087° 28' 27.28" E
Elevation: 2125 feet - 648 meters
Operating hours: Remarks
Operating agency: Civil government, landing fees and diplomatic clearance may be required
Timezone: UTC+8
Fuel: N/A

Runway information:
07/25 - 11811 x 148 feet< - >3600 x 45 meters

Recent METARs:
ZWWW 171030Z 03002MPS 1400 R25/P2000N BR BKN040 M07/M09 Q1028 NOSIG
ZWWW 171030Z 03002MPS 1400 R25/P2000N BR BKN040 M07/M09 Q1028 NOSIG
ZWWW 171130Z 35001MPS 1600 BR BKN040 M08/M10 Q1028 NOSIG

Airport on the map: